カタログに戻る

IGS

運用中軍事SSO
NORAD 40381·PAYLOAD·🇯🇵 Japan

打ち上げ Feb 1, 2015 から Tanegashima Space Center

Loading…

次のパス (今後24時間)

TLE

古いSource: Mike McCants

元期: Aug 24, 2026, 21:38 UTC

1 40381U 15004A   26236.90185013 0.00009100  00000-0  21414-3 0    00
2 40381  97.3279 304.3496 0004899 338.8180  21.1819 15.41971070    02

AllMySatでIGSをリアルタイム追跡

Download on the App Store